HIMAWARI-9 (41836 NORAD) Tracking and Keplerian Element Data

This shows tracking and keplerian element data for the satellite.

Feedback or suggestion? Click here.




ElementValue
Catalog41836
NameHIMAWARI-9
Epoch Orbit740
Epoch Day319.45763771
Epoch Year2018
RAAN286.8089
Inclination0.007
Eccentricity7.86E-05
Argument of Perigee299.2865
Mean Anonmoly133.8981
Mean Motion1.0026863
Decay Rate-2.73E-06
L11 41836U 16064A 18319.45763771 -.00000273 00000-0 00000-0 0 9994
L22 41836 0.0070 286.8089 0000786 299.2865 133.8981 1.00268630 7404

Live tracking and technical data element details for HIMAWARI-9 (NORAD 41836). HIMAWARI-9 can be tracked NOW for your location showing map with azimuth and elevation plus other details from your city location.

Track the satellite on the map from your city or location and see movement details for azimuth, elevation, latitude, longitude, range, height, and movement on the map or in text.







IsCatalogInMostPopularTable: catalog: 41836, numindb: 117
Update: records affected: 1



GetName: 41836 HIMAWARI-9

Hit Count: updated at: Fri, 16 Nov 2018 06:07:59 GMT